JBU7532 SKBQ-TNCA

Flight info

Callsign JBU7532
Flight time 1h 15m
Altitude 35000
Route STA4C STA UL220 DATOR DATOR2A
Aircraft A20N/M-SDE2E3FGHIRWXY/LB1

Departure

Time 2026-04-29 20:58
Airport Ernesto Cortissoz International Airport (SKBQ)

Arrival

Time 2026-04-29 22:13
Airport Queen Beatrix International Airport (TNCA)
Time Latitude Longitude Altitude Speed Heading
2026-04-29 20:39 10.88631 -74.77746 90 ft 0 kts 131°
2026-04-29 20:50 10.88659 -74.77779 87 ft 10 kts 131°
2026-04-29 20:50 10.88714 -74.77825 88 ft 10 kts 164°
2026-04-29 20:51 10.88760 -74.77797 86 ft 10 kts 278°
2026-04-29 20:51 10.88765 -74.77777 85 ft 0 kts 237°
2026-04-29 20:53 10.88677 -74.77874 85 ft 33 kts 214°
2026-04-29 20:54 10.88414 -74.78286 94 ft 29 kts 271°
2026-04-29 20:54 10.88235 -74.78460 95 ft 51 kts 212°
2026-04-29 20:54 10.88034 -74.78626 99 ft 31 kts 221°
2026-04-29 20:55 10.87924 -74.78753 101 ft 14 kts 251°
2026-04-29 20:55 10.87911 -74.78862 103 ft 0 kts 267°
2026-04-29 20:56 10.87910 -74.78864 103 ft 4 kts 267°
2026-04-29 20:56 10.87930 -74.78932 104 ft 11 kts 303°
2026-04-29 20:56 10.87939 -74.78943 103 ft 7 kts 314°
2026-04-29 20:57 10.87893 -74.78895 103 ft 11 kts 319°
2026-04-29 20:57 10.88022 -74.78877 101 ft 56 kts 29°
2026-04-29 20:57 10.88597 -74.78388 91 ft 156 kts 41°
2026-04-29 20:57 10.89599 -74.77565 379 ft 201 kts 39°
2026-04-29 20:58 10.90688 -74.76569 654 ft 223 kts 53°
2026-04-29 20:58 10.91268 -74.74998 1010 ft 256 kts 82°
2026-04-29 20:58 10.90997 -74.73209 1353 ft 264 kts 112°
2026-04-29 20:58 10.89886 -74.71719 1696 ft 270 kts 141°
2026-04-29 20:59 10.88218 -74.70823 2283 ft 272 kts 159°
2026-04-29 20:59 10.86525 -74.70084 2730 ft 268 kts 147°
2026-04-29 20:59 10.85240 -74.68725 3095 ft 269 kts 120°
2026-04-29 20:59 10.84707 -74.66916 3452 ft 270 kts 92°
2026-04-29 21:00 10.84991 -74.65039 3857 ft 270 kts 74°
2026-04-29 21:00 10.85544 -74.63205 4367 ft 272 kts 72°
2026-04-29 21:00 10.86119 -74.61362 4872 ft 273 kts 72°
2026-04-29 21:00 10.86673 -74.59508 5368 ft 275 kts 73°
2026-04-29 21:01 10.87206 -74.57637 5875 ft 277 kts 74°
2026-04-29 21:01 10.87727 -74.55746 6378 ft 279 kts 75°
2026-04-29 21:01 10.88242 -74.53837 6860 ft 280 kts 75°
2026-04-29 21:01 10.88752 -74.51940 7350 ft 281 kts 75°
2026-04-29 21:02 10.89270 -74.50012 7850 ft 284 kts 75°
2026-04-29 21:02 10.89793 -74.48073 8403 ft 284 kts 76°
2026-04-29 21:02 10.90320 -74.46116 9128 ft 289 kts 76°
2026-04-29 21:02 10.90853 -74.44135 9867 ft 291 kts 76°
2026-04-29 21:03 10.91392 -74.42136 10560 ft 295 kts 76°
2026-04-29 21:03 10.91938 -74.40106 11269 ft 299 kts 76°
2026-04-29 21:03 10.92492 -74.38051 12000 ft 303 kts 76°
2026-04-29 21:03 10.93051 -74.35972 12735 ft 307 kts 76°
2026-04-29 21:04 10.93620 -74.33861 13498 ft 314 kts 77°
2026-04-29 21:04 10.94202 -74.31693 14182 ft 330 kts 77°
2026-04-29 21:04 10.94819 -74.29392 14875 ft 343 kts 77°
2026-04-29 21:04 10.95459 -74.27009 15589 ft 356 kts 76°
2026-04-29 21:05 10.96133 -74.24546 16292 ft 367 kts 74°
2026-04-29 21:05 10.97073 -74.22096 17034 ft 377 kts 68°
2026-04-29 21:05 10.98140 -74.19630 17793 ft 385 kts 68°
2026-04-29 21:05 10.99223 -74.17110 18491 ft 391 kts 68°
2026-04-29 21:06 11.00314 -74.14562 19167 ft 396 kts 68°
2026-04-29 21:06 11.01404 -74.12009 19852 ft 400 kts 67°
2026-04-29 21:06 11.02515 -74.09404 20561 ft 404 kts 67°
2026-04-29 21:06 11.03637 -74.06770 21289 ft 408 kts 67°
2026-04-29 21:07 11.04773 -74.04103 22035 ft 412 kts 66°
2026-04-29 21:07 11.05915 -74.01419 22806 ft 415 kts 66°
2026-04-29 21:07 11.07067 -73.98713 23550 ft 418 kts 66°
2026-04-29 21:07 11.08227 -73.95990 24222 ft 420 kts 66°
2026-04-29 21:08 11.09394 -73.93251 24901 ft 422 kts 66°
2026-04-29 21:08 11.10562 -73.90509 25596 ft 424 kts 66°
2026-04-29 21:08 11.11721 -73.87788 26298 ft 424 kts 66°
2026-04-29 21:08 11.12909 -73.84998 27030 ft 424 kts 67°
2026-04-29 21:09 11.14065 -73.82281 27762 ft 424 kts 67°
2026-04-29 21:09 11.15236 -73.79529 28505 ft 423 kts 67°
2026-04-29 21:09 11.16404 -73.76787 29278 ft 420 kts 67°
2026-04-29 21:09 11.17560 -73.74069 30048 ft 418 kts 67°
2026-04-29 21:10 11.18710 -73.71365 30727 ft 415 kts 67°
2026-04-29 21:10 11.19852 -73.68679 31414 ft 412 kts 67°
2026-04-29 21:10 11.20993 -73.66007 32131 ft 409 kts 67°
2026-04-29 21:10 11.22122 -73.63378 32854 ft 404 kts 67°
2026-04-29 21:11 11.23230 -73.60804 33593 ft 398 kts 67°
2026-04-29 21:11 11.24332 -73.58243 34247 ft 394 kts 67°
2026-04-29 21:11 11.25441 -73.55657 34366 ft 405 kts 67°
2026-04-29 21:11 11.26584 -73.52991 34487 ft 416 kts 67°
2026-04-29 21:12 11.27757 -73.50255 34591 ft 427 kts 67°
2026-04-29 21:12 11.28958 -73.47452 34699 ft 437 kts 67°
2026-04-29 21:12 11.30194 -73.44566 34803 ft 448 kts 67°
2026-04-29 21:12 11.31453 -73.41627 34849 ft 460 kts 67°
2026-04-29 21:13 11.32746 -73.38606 34849 ft 472 kts 67°
2026-04-29 21:13 11.34080 -73.35492 34838 ft 484 kts 67°
2026-04-29 21:13 11.35422 -73.32356 34829 ft 495 kts 67°
2026-04-29 21:14 11.38191 -73.25884 34833 ft 499 kts 67°
2026-04-29 21:14 11.40961 -73.19404 34820 ft 499 kts 67°
2026-04-29 21:15 11.43731 -73.12917 34810 ft 499 kts 67°
2026-04-29 21:15 11.46498 -73.06435 34817 ft 499 kts 67°
2026-04-29 21:16 11.49263 -72.99950 34804 ft 499 kts 67°
2026-04-29 21:16 11.52005 -72.93516 34811 ft 499 kts 67°
2026-04-29 21:17 11.54394 -72.86874 34811 ft 498 kts 72°
2026-04-29 21:17 11.56639 -72.80190 34805 ft 498 kts 72°
2026-04-29 21:18 11.58887 -72.73508 34812 ft 498 kts 72°
2026-04-29 21:18 11.61116 -72.66866 34812 ft 498 kts 72°
2026-04-29 21:19 11.63357 -72.60184 34814 ft 498 kts 72°
2026-04-29 21:19 11.65598 -72.53494 34810 ft 498 kts 72°
2026-04-29 21:20 11.67836 -72.46809 34814 ft 498 kts 72°
2026-04-29 21:20 11.70057 -72.40160 34815 ft 498 kts 72°
2026-04-29 21:21 11.72289 -72.33464 34814 ft 499 kts 72°
2026-04-29 21:21 11.74520 -72.26765 34813 ft 499 kts 72°
2026-04-29 21:22 11.76751 -72.20062 34814 ft 499 kts 72°
2026-04-29 21:22 11.78983 -72.13350 34814 ft 499 kts 72°
2026-04-29 21:23 11.81213 -72.06638 34817 ft 499 kts 72°
2026-04-29 21:23 11.83426 -71.99971 34824 ft 500 kts 72°
2026-04-29 21:24 11.85652 -71.93260 34827 ft 500 kts 72°
2026-04-29 21:24 11.87882 -71.86530 34700 ft 500 kts 72°
2026-04-29 21:24 11.88997 -71.83165 34471 ft 500 kts 72°
2026-04-29 21:25 11.90108 -71.79810 34246 ft 500 kts 72°
2026-04-29 21:25 11.91222 -71.76441 34030 ft 500 kts 72°
2026-04-29 21:25 11.92336 -71.73074 33812 ft 501 kts 72°
2026-04-29 21:25 11.93435 -71.69749 33552 ft 501 kts 72°
2026-04-29 21:26 11.94549 -71.66375 33297 ft 501 kts 72°
2026-04-29 21:26 11.95662 -71.63003 33044 ft 502 kts 72°
2026-04-29 21:26 11.96776 -71.59629 32797 ft 502 kts 72°
2026-04-29 21:26 11.97889 -71.56254 32549 ft 502 kts 72°
2026-04-29 21:27 11.98628 -71.54013 32391 ft 502 kts 72°
2026-04-29 21:27 12.00117 -71.49497 32075 ft 502 kts 72°
2026-04-29 21:27 12.01233 -71.46108 31828 ft 502 kts 72°
2026-04-29 21:27 12.02331 -71.42774 31591 ft 503 kts 72°
2026-04-29 21:28 12.03447 -71.39381 31352 ft 503 kts 72°
2026-04-29 21:28 12.04562 -71.35992 31118 ft 504 kts 72°
2026-04-29 21:28 12.05678 -71.32598 30885 ft 504 kts 71°
2026-04-29 21:28 12.06794 -71.29202 30565 ft 503 kts 71°
2026-04-29 21:29 12.07901 -71.25824 30252 ft 500 kts 72°
2026-04-29 21:29 12.08942 -71.22458 29931 ft 496 kts 71°
2026-04-29 21:29 12.09980 -71.19091 29420 ft 495 kts 73°
2026-04-29 21:29 12.10977 -71.15745 28770 ft 490 kts 72°
2026-04-29 21:30 12.12001 -71.12456 28133 ft 483 kts 71°
2026-04-29 21:30 12.13055 -71.09221 27505 ft 477 kts 71°
2026-04-29 21:30 12.14127 -71.06025 26895 ft 473 kts 71°
2026-04-29 21:30 12.15189 -71.02903 26302 ft 469 kts 71°
2026-04-29 21:31 12.16258 -70.99776 25717 ft 464 kts 71°
2026-04-29 21:31 12.17316 -70.96684 25144 ft 458 kts 71°
2026-04-29 21:31 12.18357 -70.93639 24584 ft 451 kts 71°
2026-04-29 21:31 12.19385 -70.90632 24030 ft 445 kts 71°
2026-04-29 21:32 12.20398 -70.87665 23497 ft 440 kts 72°
2026-04-29 21:32 12.21403 -70.84724 22864 ft 435 kts 72°
2026-04-29 21:32 12.22386 -70.81839 22233 ft 431 kts 72°
2026-04-29 21:32 12.23369 -70.78955 21614 ft 428 kts 72°
2026-04-29 21:33 12.24348 -70.76084 20932 ft 424 kts 72°
2026-04-29 21:33 12.25314 -70.73247 20035 ft 424 kts 72°
2026-04-29 21:33 12.26272 -70.70430 19128 ft 424 kts 73°
2026-04-29 21:33 12.27242 -70.67581 18241 ft 423 kts 73°
2026-04-29 21:34 12.28209 -70.64739 17243 ft 422 kts 73°
2026-04-29 21:34 12.29165 -70.61924 16263 ft 419 kts 73°
2026-04-29 21:34 12.30118 -70.59121 15313 ft 415 kts 73°
2026-04-29 21:34 12.31057 -70.56352 14395 ft 410 kts 73°
2026-04-29 21:35 12.31974 -70.53651 13464 ft 394 kts 73°
2026-04-29 21:35 12.32857 -70.51046 12473 ft 380 kts 73°
2026-04-29 21:35 12.33707 -70.48541 11499 ft 367 kts 73°
2026-04-29 21:35 12.34519 -70.46141 10585 ft 357 kts 73°
2026-04-29 21:36 12.35326 -70.43761 9675 ft 348 kts 73°
2026-04-29 21:36 12.36103 -70.41465 8681 ft 342 kts 73°
2026-04-29 21:36 12.36869 -70.39195 7720 ft 335 kts 73°
2026-04-29 21:36 12.37623 -70.36963 6786 ft 328 kts 73°
2026-04-29 21:37 12.38114 -70.35512 6171 ft 325 kts 72°
2026-04-29 21:37 12.39089 -70.32627 4977 ft 316 kts 73°
2026-04-29 21:37 12.39912 -70.30623 4643 ft 295 kts 63°
2026-04-29 21:37 12.41157 -70.29052 4381 ft 277 kts 43°
2026-04-29 21:38 12.42743 -70.28055 4178 ft 261 kts 31°
2026-04-29 21:38 12.44374 -70.27200 4030 ft 265 kts 30°
2026-04-29 21:38 12.46026 -70.26357 3906 ft 264 kts 30°
2026-04-29 21:38 12.47603 -70.25572 3782 ft 251 kts 29°
2026-04-29 21:39 12.49156 -70.24808 3551 ft 243 kts 30°
2026-04-29 21:39 12.50661 -70.24068 3240 ft 240 kts 30°
2026-04-29 21:39 12.52189 -70.23311 2729 ft 246 kts 29°
2026-04-29 21:39 12.53561 -70.22391 2496 ft 224 kts 51°
2026-04-29 21:40 12.54237 -70.21075 2400 ft 202 kts 78°
2026-04-29 21:40 12.54319 -70.19727 2367 ft 177 kts 94°
2026-04-29 21:40 12.54146 -70.18548 2375 ft 171 kts 100°
2026-04-29 21:40 12.53883 -70.17370 2362 ft 169 kts 102°
2026-04-29 21:41 12.53607 -70.16199 2364 ft 171 kts 102°
2026-04-29 21:41 12.53330 -70.15026 2339 ft 172 kts 102°
2026-04-29 21:41 12.53051 -70.13847 2150 ft 172 kts 102°
2026-04-29 21:41 12.52772 -70.12664 1925 ft 170 kts 101°
2026-04-29 21:42 12.52499 -70.11517 1722 ft 154 kts 101°
2026-04-29 21:42 12.52257 -70.10487 1514 ft 150 kts 101°
2026-04-29 21:42 12.52102 -70.09834 1392 ft 146 kts 101°
2026-04-29 21:42 12.51775 -70.08449 1314 ft 155 kts 101°
2026-04-29 21:43 12.51519 -70.07366 1753 ft 161 kts 101°
2026-04-29 21:43 12.51349 -70.06605 1995 ft 170 kts 100°
2026-04-29 21:43 12.51013 -70.04963 2346 ft 172 kts 100°
2026-04-29 21:43 12.50766 -70.03815 2572 ft 162 kts 100°
2026-04-29 21:44 12.50510 -70.02627 2836 ft 192 kts 100°
2026-04-29 21:44 12.50191 -70.01094 3108 ft 243 kts 101°
2026-04-29 21:44 12.49782 -70.00006 3263 ft 252 kts 118°
2026-04-29 21:44 12.48542 -69.98744 3502 ft 260 kts 146°
2026-04-29 21:45 12.46781 -69.98207 3749 ft 269 kts 173°
2026-04-29 21:45 12.44928 -69.98551 3844 ft 276 kts 197°
2026-04-29 21:45 12.43147 -69.99283 3865 ft 276 kts 199°
2026-04-29 21:45 12.41389 -69.99998 3863 ft 274 kts 198°
2026-04-29 21:46 12.39590 -70.00733 3868 ft 276 kts 198°
2026-04-29 21:46 12.37869 -70.01606 3864 ft 280 kts 214°
2026-04-29 21:46 12.36627 -70.03139 3863 ft 285 kts 242°
2026-04-29 21:46 12.36169 -70.05111 3865 ft 290 kts 270°
2026-04-29 21:47 12.36552 -70.07124 3862 ft 290 kts 288°
2026-04-29 21:47 12.37151 -70.09062 3865 ft 289 kts 288°
2026-04-29 21:47 12.37865 -70.10967 3865 ft 283 kts 297°
2026-04-29 21:47 12.38738 -70.12732 3867 ft 277 kts 298°
2026-04-29 21:48 12.39617 -70.14487 3869 ft 277 kts 298°
2026-04-29 21:48 12.40495 -70.16249 3872 ft 276 kts 298°
2026-04-29 21:48 12.41369 -70.18006 3869 ft 277 kts 298°
2026-04-29 21:48 12.42251 -70.19758 3870 ft 278 kts 298°
2026-04-29 21:49 12.43137 -70.21511 3866 ft 277 kts 298°
2026-04-29 21:49 12.44023 -70.23271 3873 ft 279 kts 298°
2026-04-29 21:49 12.44912 -70.25047 3866 ft 280 kts 298°
2026-04-29 21:49 12.45798 -70.26818 3876 ft 280 kts 298°
2026-04-29 21:50 12.46667 -70.28564 3873 ft 277 kts 298°
2026-04-29 21:50 12.47556 -70.30352 3871 ft 278 kts 298°
2026-04-29 21:50 12.48426 -70.32090 3867 ft 278 kts 298°
2026-04-29 21:50 12.49307 -70.33860 3873 ft 278 kts 298°
2026-04-29 21:51 12.50178 -70.35630 3873 ft 279 kts 298°
2026-04-29 21:51 12.51051 -70.37403 3869 ft 279 kts 298°
2026-04-29 21:51 12.52806 -70.40970 3864 ft 281 kts 298°
2026-04-29 21:52 12.53690 -70.42742 3867 ft 279 kts 298°
2026-04-29 21:52 12.54567 -70.44504 3866 ft 277 kts 298°
2026-04-29 21:52 12.55447 -70.46277 3872 ft 282 kts 298°
2026-04-29 21:52 12.56342 -70.48077 3865 ft 282 kts 298°
2026-04-29 21:53 12.57227 -70.49856 3870 ft 280 kts 299°
2026-04-29 21:53 12.58101 -70.51645 3865 ft 281 kts 298°
2026-04-29 21:53 12.58977 -70.53428 3867 ft 278 kts 298°
2026-04-29 21:53 12.59845 -70.55189 3871 ft 278 kts 298°
2026-04-29 21:54 12.60724 -70.56972 3867 ft 281 kts 298°
2026-04-29 21:54 12.61605 -70.58751 3862 ft 280 kts 298°
2026-04-29 21:54 12.62489 -70.60530 3866 ft 280 kts 298°
2026-04-29 21:54 12.63358 -70.62284 3864 ft 280 kts 298°
2026-04-29 21:55 12.64253 -70.64084 3867 ft 280 kts 298°
2026-04-29 21:55 12.65139 -70.65856 3865 ft 279 kts 298°
2026-04-29 21:55 12.66014 -70.67604 3862 ft 280 kts 298°
2026-04-29 21:55 12.66902 -70.69380 3862 ft 280 kts 298°
2026-04-29 21:56 12.67786 -70.71148 3861 ft 279 kts 298°
2026-04-29 21:56 12.68676 -70.72911 3863 ft 278 kts 298°
2026-04-29 21:56 12.69556 -70.74662 3867 ft 277 kts 298°
2026-04-29 21:56 12.70438 -70.76420 3866 ft 276 kts 298°
2026-04-29 21:57 12.71319 -70.78171 3856 ft 279 kts 298°
2026-04-29 21:57 12.72214 -70.79944 3861 ft 280 kts 299°
2026-04-29 21:57 12.73106 -70.81723 3864 ft 280 kts 298°
2026-04-29 21:57 12.73990 -70.83479 3854 ft 280 kts 298°
2026-04-29 21:58 12.74907 -70.85270 3863 ft 280 kts 303°
2026-04-29 21:58 12.76223 -70.86683 3859 ft 274 kts 331°
2026-04-29 21:58 12.77972 -70.87316 3856 ft 263 kts 359°
2026-04-29 21:58 12.79733 -70.87039 3860 ft 254 kts 28°
2026-04-29 21:59 12.81089 -70.85968 3867 ft 246 kts 54°
2026-04-29 21:59 12.81910 -70.84453 3865 ft 242 kts 73°
2026-04-29 21:59 12.82226 -70.82775 3867 ft 240 kts 90°
2026-04-29 21:59 12.81969 -70.81049 3864 ft 253 kts 109°
2026-04-29 22:00 12.81220 -70.79377 3860 ft 260 kts 114°
2026-04-29 22:00 12.80448 -70.77709 3866 ft 258 kts 114°
2026-04-29 22:00 12.79687 -70.76050 3867 ft 257 kts 114°
2026-04-29 22:00 12.78927 -70.74377 3866 ft 260 kts 113°
2026-04-29 22:01 12.78132 -70.72623 3870 ft 301 kts 113°
2026-04-29 22:01 12.77181 -70.70522 3866 ft 345 kts 114°
2026-04-29 22:01 12.76147 -70.68251 3866 ft 354 kts 114°
2026-04-29 22:01 12.75106 -70.65976 3867 ft 349 kts 114°
2026-04-29 22:02 12.74114 -70.63805 3877 ft 323 kts 114°
2026-04-29 22:02 12.73199 -70.61804 3871 ft 297 kts 114°
2026-04-29 22:02 12.72361 -70.59964 3867 ft 274 kts 114°
2026-04-29 22:02 12.71591 -70.58264 3821 ft 253 kts 114°
2026-04-29 22:03 12.70871 -70.56681 3882 ft 245 kts 113°
2026-04-29 22:03 12.70133 -70.55055 3879 ft 254 kts 113°
2026-04-29 22:03 12.69391 -70.53421 3877 ft 252 kts 113°
2026-04-29 22:03 12.68649 -70.51791 3881 ft 253 kts 113°
2026-04-29 22:04 12.67916 -70.50184 3880 ft 252 kts 113°
2026-04-29 22:04 12.67173 -70.48550 3870 ft 255 kts 114°
2026-04-29 22:04 12.66423 -70.46906 3877 ft 254 kts 114°
2026-04-29 22:04 12.65674 -70.45268 3875 ft 253 kts 114°
2026-04-29 22:05 12.64930 -70.43636 3873 ft 253 kts 114°
2026-04-29 22:05 12.64185 -70.42004 3871 ft 253 kts 114°
2026-04-29 22:05 12.62706 -70.38776 3880 ft 251 kts 113°
2026-04-29 22:06 12.61959 -70.37141 3877 ft 255 kts 114°
2026-04-29 22:06 12.61214 -70.35517 3878 ft 254 kts 114°
2026-04-29 22:06 12.60464 -70.33880 3878 ft 254 kts 114°
2026-04-29 22:06 12.59717 -70.32242 3873 ft 254 kts 114°
2026-04-29 22:07 12.58973 -70.30615 3873 ft 251 kts 114°
2026-04-29 22:07 12.58231 -70.28994 3791 ft 253 kts 114°
2026-04-29 22:07 12.57485 -70.27367 3553 ft 249 kts 113°
2026-04-29 22:07 12.56759 -70.25784 3312 ft 241 kts 113°
2026-04-29 22:08 12.56058 -70.24257 3071 ft 234 kts 113°
2026-04-29 22:08 12.55387 -70.22763 2869 ft 226 kts 110°
2026-04-29 22:08 12.54864 -70.21297 2772 ft 212 kts 105°
2026-04-29 22:08 12.54483 -70.19895 2677 ft 198 kts 102°
2026-04-29 22:09 12.54180 -70.18614 2622 ft 171 kts 102°
2026-04-29 22:09 12.53924 -70.17543 2543 ft 151 kts 101°
2026-04-29 22:09 12.53677 -70.16492 2477 ft 149 kts 101°
2026-04-29 22:09 12.53436 -70.15475 2386 ft 151 kts 101°
2026-04-29 22:10 12.53191 -70.14438 2207 ft 150 kts 101°
2026-04-29 22:10 12.52948 -70.13411 2036 ft 147 kts 101°
2026-04-29 22:10 12.52709 -70.12400 1845 ft 145 kts 101°
2026-04-29 22:10 12.52470 -70.11389 1663 ft 148 kts 101°
2026-04-29 22:11 12.52231 -70.10375 1478 ft 150 kts 101°
2026-04-29 22:11 12.51982 -70.09326 1625 ft 152 kts 102°
2026-04-29 22:11 12.51710 -70.08202 1587 ft 169 kts 103°
2026-04-29 22:11 12.51448 -70.07145 1234 ft 144 kts 100°
2026-04-29 22:12 12.51232 -70.06156 813 ft 142 kts 100°
2026-04-29 22:12 12.50995 -70.05144 539 ft 154 kts 98°
2026-04-29 22:12 12.50743 -70.04090 315 ft 147 kts 99°
2026-04-29 22:12 12.50506 -70.03086 123 ft 151 kts 99°
2026-04-29 22:13 12.50278 -70.02106 34 ft 124 kts 106°
2026-04-29 22:13 12.50125 -70.01476 44 ft 45 kts 104°
2026-04-29 22:13 12.50092 -70.01337 50 ft 17 kts 104°
2026-04-29 22:13 12.50063 -70.01216 51 ft 18 kts 103°
2026-04-29 22:14 12.50033 -70.01086 51 ft 20 kts 103°
2026-04-29 22:14 12.49999 -70.00945 54 ft 21 kts 103°
2026-04-29 22:14 12.49966 -70.00805 55 ft 20 kts 103°
2026-04-29 22:14 12.49933 -70.00665 59 ft 21 kts 103°
2026-04-29 22:15 12.49899 -70.00521 66 ft 21 kts 103°
2026-04-29 22:15 12.49865 -70.00377 65 ft 21 kts 103°
2026-04-29 22:15 12.49830 -70.00229 70 ft 22 kts 104°
2026-04-29 22:15 12.49796 -70.00083 72 ft 20 kts 116°
2026-04-29 22:16 12.49793 -70.00077 63 ft 0 kts 117°